Regional Weather Roundup
Issued by NWS

Home | Current Version | Previous Version | Graphics & Text | Print | Product List | Glossary On
Versions: 1 2 3 4 5 6 7 8 9 10 11 12 13 14 15 16 17 18 19 20 21 22 23 24 25 26 27 28 29 30 31 32 33 34 35 36 37 38 39 40 41 42 43 44 45 46 47 48 49 50
000
ASUS43 KFSD 290110
RWRSD

WEATHER ROUNDUP FOR SOUTH DAKOTA
NATIONAL WEATHER SERVICE SIOUX FALLS SD
800 PM CDT THU AUG 28 2014

NOTE: "FAIR" INDICATES FEW OR NO CLOUDS BELOW 12,000 FEET WITH NO
SIGNIFICANT WEATHER AND/OR OBSTRUCTIONS TO VISIBILITY.


SDZ001>005-009-010-012>017-290200-
NORTHWEST AND NORTH CENTRAL SOUTH DAKOTA

CITY           SKY/WX    TMP DP  RH WIND       PRES   REMARKS
BUFFALO          N/A     80  53  39 E6        29.83S
FAITH            N/A     72  65  78 SE6       29.88F
MOBRIDGE       CLOUDY    68  67  96 E5        29.84F
$$

SDZ012>016-024>037-041>051-057-063-072>074-290200-
SOUTHWEST AND SOUTH CENTRAL SOUTH DAKOTA

CITY           SKY/WX    TMP DP  RH WIND       PRES   REMARKS
RAPID CTY ARPT CLOUDY    73  62  68 E5        29.92S
PIERRE         CLOUDY    72  67  84 N9        29.84S
CUSTER         MOCLDY    66  53  63 W6        30.06S
ELLSWORTH AFB  MOCLDY    75  57  53 S3        29.92S
PHILIP         MOCLDY    70  64  81 NW3       29.88S
PINE RIDGE     CLOUDY    66  58  75 CALM      29.94F
WINNER         FAIR      71  67  87 NW9       29.85S
$$

SDZ004>011-016>023-039-040-290200-
NORTHEAST SOUTH DAKOTA

CITY           SKY/WX    TMP DP  RH WIND       PRES   REMARKS
ABERDEEN       HVY RAIN  66  66 100 E9        29.86S FOG
WATERTOWN      CLOUDY    66  64  93 E8        29.87R
SISSETON         N/A     66  66 100 SE6       29.87S
$$

SDZ017-020-022-023-036>040-048>070-290200-
SOUTHEAST SOUTH DAKOTA

CITY           SKY/WX    TMP DP  RH WIND       PRES   REMARKS
SIOUX FALLS    CLOUDY    72  69  90 E9        29.83F
HURON          CLOUDY    71  68  90 NE6       29.82R
CHAMBERLAIN    PTCLDY    72  69  89 N6        29.81F
MITCHELL       LGT RAIN  73  71  93 W6        29.81S
YANKTON        MOCLDY    77  72  83 SE7       29.79S
$$

ABBREVIATIONS USED IN REMARKS
   TC - TEMPERATURE IN CELSIUS
  WCI - WIND CHILL INDEX
   HX - HEAT INDEX
  VSB - VISIBILITY




USA.gov is the U.S. government's official web portal to all federal, state and local government web resources and services.